Main page
METAR-TAF:

METAR-TAF

Airports :

Oil platform

Ula, Norway

latitude: 59-06-39N, longitude: 2-50-45E, elevation: 0 m

Current weather observation

The report was made 31 minutes ago, at 20:50 UTC
Wind 12 kt from the Southeast
Temperature 10°C
Humidity 76%
Pressure 999 hPa
Visibility 10 km or more
light rain showers

METAR: ENLA 202050Z AUTO 14012KT 9999NDV -SHRA FEW046/// OVC069/// 10/06 Q0999 W///S4

Time: 23:21 (21:21 UTC)


TAF: missing

Weather observations and forecasts of more than 4000 airports (METAR and TAF reports).

The available stations are represented by yellow and red dots on the map.

Hover mouse over dot to see the name of the station.

Then click to see weather observations and forecasts.

To change the map : click on the green buttons with a black cross to zoom in, on the green button with a dash to zoom out, or on the green arrows for adjacent maps.


METAR-TAF: